Find OneWeb SL0544

NORAD ID: 55144 Int'l Des: 2023-004 Owner: ONEWEBN Country: UK Constellation: oneweb operational
LEOCIRCULARPOLARONEWEB_TYPE

当前视图

正在加载3D地球...

About OneWeb SL0544

OneWeb SL0544 (NORAD 55144) is a oneweb constellation satellite launched Jan 10, 2023 by ONEWEBN of UK. It operates in LEO, CIRCULAR, POLAR, ONEWEB_TYPE orbit with a mass of 148.00 kg.

关于 OneWeb SL0544

正在加载描述...

即将过境

Passes for default location (London). Set your location on the main map for personalized predictions.

高度历史

Loading altitude history...

两行轨道根数

1 55144U 23004E 26171.41981973 .00000038 00000-0 64789-4 0 9996
2 55144 87.9162 334.8257 0001788 100.0732 260.0602 13.18685759170123
Epoch: Jun 20, 2026 • Age: 37 hours

当前状态

高度 1192.8 km
速度 7.26 km/s
星下点 28.52°N, 85.91°E
发射日期 Jan 10, 2023
运行时间 3.4 years
类型 internet

技术详情

分类 Payload
质量 148.00 kg
干质量 140.00 kg
总质量 148.00 kg
长度 1.30 m
直径 1.00 m
跨度 5.00 m
形状 Trapezoid+2 pan
制造商 ONEWUS
平台类型 ARROW
阶段状态 In Orbit
所有者/国家 ONEWEBN/UK

Most Searched